This is the latest recevied weather packets stored in our database for station/object OK2KJT-11. If no packets are shown the sender has not sent any weather packets the latest 10 day(s).
| Time | Temp. | Humidity | Pressure | Rain* | Wind** | Luminosity | Snow |
|---|---|---|---|---|---|---|---|
| 1788093086 | 23.89° C | 41% | 1019.1 hPa | - | - | - | - |
| 1788092478 | 24.44° C | 42% | 1019.1 hPa | - | - | - | - |
| 1788091879 | 23.89° C | 41% | 1019.1 hPa | - | - | - | - |
| 1788091279 | 23.89° C | 41% | 1019.1 hPa | - | - | - | - |
| 1788090680 | 23.89° C | 41% | 1019.2 hPa | - | - | - | - |
| 1788090080 | 23.89° C | 43% | 1019.2 hPa | - | - | - | - |
| 1788089479 | 23.89° C | 43% | 1019.3 hPa | - | - | - | - |
| 1788088879 | 23.33° C | 42% | 1019.4 hPa | - | - | - | - |
| 1788088279 | 23.33° C | 44% | 1019.4 hPa | - | - | - | - |
| 1788087679 | 23.33° C | 42% | 1019.4 hPa | - | - | - | - |
| 1788087080 | 23.33° C | 42% | 1019.5 hPa | - | - | - | - |
| 1788086489 | 23.33° C | 44% | 1019.6 hPa | - | - | - | - |
| 1788085880 | 22.78° C | 43% | 1019.8 hPa | - | - | - | - |
| 1788085281 | 22.78° C | 44% | 1019.8 hPa | - | - | - | - |
| 1788084681 | 22.22° C | 43% | 1019.9 hPa | - | - | - | - |
| 1788084081 | 22.22° C | 44% | 1020 hPa | - | - | - | - |
| 1788083481 | 22.22° C | 45% | 1020.1 hPa | - | - | - | - |
| 1788082881 | 22.22° C | 47% | 1019.9 hPa | - | - | - | - |
| 1788082297 | 21.67° C | 48% | 1020 hPa | - | - | - | - |
| 1788081682 | 21.67° C | 48% | 1020.1 hPa | - | - | - | - |
| 1788081081 | 21.67° C | 48% | 1020 hPa | - | - | - | - |
| 1788080482 | 21.67° C | 50% | 1020 hPa | - | - | - | - |
| 1788079882 | 21.11° C | 51% | 1020 hPa | - | - | - | - |
| 1788079282 | 20.56° C | 55% | 1020.1 hPa | - | - | - | - |
| 1788078682 | 20° C | 55% | 1020 hPa | - | - | - | - |
* Rain since midnight (hover to see other rain measurements)
** Current wind speed in m/s (hover to see current wind gust speed)